Terminal Aerodrome Forecast
Issued by NWS

Home | Current Version | Previous Version | Text Only | Print | Product List | Glossary On
Versions: 1 2 3 4 5 6 7 8 9 10 11 12 13 14 15 16 17 18 19 20 21 22 23 24 25 26 27 28 29 30 31 32 33 34 35 36 37 38 39 40
000
FTUS43 KGLD 200520
TAFMCK
TAF
KMCK 200520Z 2006/2106 25007KT P6SM SCT200
      TEMPO 2006/2009 4SM BR SCT010
     FM201700 28007KT P6SM SCT200
     FM210000 24007KT P6SM SCT050 SCT150=

USA.gov is the U.S. government's official web portal to all federal, state and local government web resources and services.